Temp
78 76 75 74 74 74 73 73 73 73 73 74 74 75 73 71 78 78 79 77 77 75 75 76 75 75 74 74 75 74 74 74 73
77 76 75 74 74 74 74 74 74 73 73 73 74 74 73 74 77 78 78 78 76 75 75 75 75 75 75 75 75 74 74 73 73
77 75 74 74 74 74 75 73 73 73 73 73 73 73 71 73 75 78 78 75 74 74 75 75 76 75 75 75 74 74 74 73 73
75 75 74 74 74 74 74 74 74 74 74 73 73 72 70 75 78 79 78 74 73 73 75 75 75 76 75 75 74 74 74 73 73
73 73 73 73 73 73 73 73 74 74 73 73 72 70 69 76 78 79 79 73 72 73 74 74 75 75 76 75 75 74 74 74 73
78 73 70 71 72 72 72 73 73 72 70 71 70 68 77 80 79 79 74 73 71 72 73 73 74 75 75 75 75 74 74 74 74
76 71 68 70 70 70 71 71 71 71 79 80 71 77 79 79 78 79 73 73 72 73 73 73 73 74 74 75 75 75 74 74 74
80 79 78 78 70 78 78 78 79 79 79 79 80 79 78 79 79 77 72 71 72 72 73 73 73 73 73 74 74 75 74 74 74
79 79 79 78 79 79 79 79 79 79 79 79 79 79 79 79 79 78 69 70 70 71 72 73 73 73 73 74 74 74 74 74 74
79 79 79 79 79 79 79 79 79 79 79 79 79 79 79 80 80 79 69 68 69 69 72 73 73 74 74 74 74 74 74 74 74
77 78 78 79 79 79 79 78 78 78 78 78 79 78 79 79 79 79 78 68 68 68 69 72 73 73 74 74 74 74 74 74 74
77 77 77 79 79 78 78 78 77 77 77 77 78 78 79 78 79 79 79 77 67 67 69 70 72 73 73 74 74 74 74 74 74
76 76 77 77 77 76 76 75 75 75 75 74 75 75 76 77 77 78 78 78 78 73 68 68 69 71 73 74 74 74 74 73 73
76 75 75 76 75 75 74 74 74 71 71 70 72 73 73 75 77 77 77 77 76 77 72 67 66 67 69 71 73 74 74 73 73
75 74 74 75 74 73 73 72 73 73 73 72 72 73 75 76 77 77 78 78 76 77 76 75 74 65 66 67 69 71 72 72 72
71 72 72 71 70 70 70 69 68 69 71 67 68 70 74 76 77 72 75 77 78 78 78 77 74 73 68 67 68 69 70 71 71
69 68 68 68 67 67 67 66 64 66 67 63 62 60 66 73 71 71 74 74 76 76 75 74 74 73 73 70 67 68 69 69 70
67 66 67 66 66 64 64 64 62 60 64 65 61 56 54 60 65 67 70 71 71 73 73 73 75 76 75 71 68 64 65 68 69
65 65 64 64 64 62 62 63 61 60 58 61 64 62 60 54 53 63 64 67 67 68 70 71 71 72 73 71 65 64 65 67 69
62 62 62 61 62 61 60 60 60 60 58 58 57 58 59 59 54 50 55 61 64 66 67 69 71 70 70 71 67 63 64 65 66
MSLP
1013.48 1013.78 1013.94 1014.06 1014.23 1014.28 1014.24 1014.25 1014.24 1014.15 1014.02 1013.97 1013.84 1013.56 1013.72 1013.77 1013.13 1013.08 1012.88 1012.95 1012.54 1012.85 1012.81 1012.75 1012.87 1012.78 1012.83 1012.80 1012.75 1012.86 1012.83 1012.76 1012.81
1013.46 1013.55 1013.87 1014.05 1014.20 1014.19 1014.15 1014.13 1014.04 1014.01 1013.91 1013.85 1013.72 1013.55 1013.52 1013.49 1013.03 1012.81 1012.75 1012.49 1012.54 1012.72 1012.56 1012.57 1012.55 1012.58 1012.53 1012.49 1012.50 1012.51 1012.66 1012.62 1012.61
1013.39 1013.54 1013.77 1013.95 1013.99 1013.99 1013.86 1013.89 1013.80 1013.75 1013.71 1013.65 1013.63 1013.59 1013.52 1013.31 1013.12 1012.43 1012.46 1012.41 1012.58 1012.57 1012.32 1012.27 1012.08 1012.21 1012.28 1012.24 1012.26 1012.19 1012.26 1012.29 1012.32
1013.51 1013.55 1013.71 1013.79 1013.87 1013.77 1013.72 1013.59 1013.52 1013.45 1013.39 1013.37 1013.37 1013.35 1013.34 1013.08 1012.26 1011.98 1011.98 1012.05 1012.41 1012.27 1011.97 1011.84 1011.73 1011.53 1011.70 1011.85 1011.91 1011.93 1011.90 1011.96 1011.95
1013.58 1013.62 1013.66 1013.74 1013.71 1013.61 1013.55 1013.43 1013.29 1013.19 1013.13 1013.00 1013.02 1012.99 1012.94 1012.37 1011.82 1011.55 1011.44 1011.74 1012.03 1011.89 1011.70 1011.42 1011.26 1011.12 1011.00 1011.12 1011.24 1011.33 1011.46 1011.47 1011.55
1013.26 1013.38 1013.67 1013.68 1013.53 1013.42 1013.25 1013.16 1013.05 1012.90 1012.77 1012.50 1012.53 1012.67 1011.92 1011.36 1011.08 1010.85 1010.85 1011.23 1011.47 1011.31 1011.16 1011.03 1010.80 1010.63 1010.52 1010.40 1010.52 1010.63 1010.70 1010.81 1010.86
1013.31 1013.43 1013.52 1013.45 1013.22 1013.17 1012.96 1012.87 1012.75 1012.74 1011.88 1011.42 1011.83 1011.61 1011.10 1010.94 1010.69 1010.39 1010.46 1010.73 1010.76 1010.57 1010.40 1010.33 1010.24 1010.11 1009.94 1009.84 1009.76 1009.78 1009.89 1010.02 1010.17
1012.80 1012.80 1012.76 1012.56 1012.63 1012.34 1012.07 1011.83 1011.68 1011.50 1011.41 1011.20 1010.95 1010.76 1010.70 1010.46 1010.12 1009.76 1009.95 1010.16 1010.12 1009.91 1009.72 1009.60 1009.47 1009.37 1009.28 1009.16 1009.05 1008.96 1008.99 1009.14 1009.28
1012.49 1012.38 1012.32 1012.20 1011.98 1011.81 1011.67 1011.40 1011.25 1011.11 1010.97 1010.74 1010.43 1010.23 1010.04 1009.77 1009.43 1009.00 1009.08 1009.27 1009.26 1009.03 1008.85 1008.74 1008.63 1008.51 1008.38 1008.28 1008.20 1008.11 1008.09 1008.11 1008.19
1012.18 1012.15 1011.91 1011.82 1011.81 1011.50 1011.30 1011.06 1010.79 1010.55 1010.28 1010.01 1009.85 1009.55 1009.20 1008.83 1008.48 1008.12 1008.03 1008.21 1008.28 1008.16 1007.82 1007.62 1007.52 1007.41 1007.27 1007.17 1007.08 1007.04 1007.02 1007.01 1007.11
1012.02 1011.89 1011.67 1011.49 1011.38 1011.13 1010.93 1010.70 1010.44 1010.19 1009.91 1009.51 1009.28 1008.99 1008.57 1008.15 1007.86 1007.47 1007.08 1007.10 1007.20 1007.18 1006.96 1006.61 1006.40 1006.27 1006.15 1006.05 1006.01 1006.04 1006.04 1006.03 1006.04
1011.77 1011.69 1011.45 1011.20 1011.10 1010.96 1010.77 1010.57 1010.30 1009.95 1009.58 1009.28 1008.93 1008.60 1008.17 1007.70 1007.26 1006.83 1006.42 1006.08 1006.03 1006.07 1006.03 1005.69 1005.27 1005.04 1004.90 1004.75 1004.66 1004.62 1004.59 1004.55 1004.54
1011.72 1011.61 1011.42 1011.28 1011.10 1011.03 1010.84 1010.60 1010.21 1009.82 1009.53 1009.13 1008.79 1008.45 1007.95 1007.28 1006.79 1006.28 1005.83 1005.38 1005.07 1004.81 1004.85 1004.79 1004.64 1004.28 1003.97 1003.69 1003.48 1003.34 1003.26 1003.26 1003.41
1011.81 1011.78 1011.68 1011.53 1011.42 1011.15 1010.99 1010.62 1010.35 1010.06 1009.63 1009.25 1008.78 1008.23 1007.62 1006.85 1006.15 1005.65 1005.36 1004.91 1004.60 1004.19 1003.89 1003.85 1003.74 1003.62 1003.39 1002.94 1002.58 1002.28 1002.12 1002.06 1002.03
1012.32 1012.30 1012.27 1011.91 1011.74 1011.56 1011.37 1011.04 1010.68 1010.16 1009.38 1008.89 1008.19 1007.71 1006.90 1006.28 1005.58 1005.04 1004.60 1004.23 1004.06 1003.67 1003.29 1002.92 1002.48 1002.45 1002.39 1002.23 1001.97 1001.58 1001.16 1000.92 1000.94
1013.12 1012.93 1012.74 1012.57 1012.31 1012.20 1011.97 1011.57 1011.02 1010.22 1009.76 1009.05 1008.09 1007.31 1006.12 1005.28 1005.04 1005.04 1004.56 1003.79 1003.18 1002.76 1002.36 1002.30 1002.09 1001.68 1001.46 1001.23 1001.02 1000.70 1000.46 1000.03 999.69
1013.70 1013.63 1013.42 1013.25 1012.90 1012.63 1012.37 1011.93 1011.42 1010.80 1010.39 1009.58 1008.66 1006.70 1006.07 1005.40 1005.67 1005.54 1004.31 1003.56 1003.06 1002.21 1002.06 1001.88 1001.52 1001.19 1000.90 1000.61 1000.37 999.93 999.64 999.31 998.73
1014.51 1014.28 1013.92 1013.65 1013.36 1013.07 1012.81 1012.44 1012.02 1011.32 1010.78 1010.44 1009.79 1007.86 1006.90 1006.43 1006.27 1005.43 1004.45 1003.66 1003.37 1002.75 1002.10 1001.59 1001.12 1000.58 1000.03 999.89 999.70 999.23 998.97 998.52 997.95
1015.01 1014.75 1014.49 1014.18 1013.87 1013.59 1013.25 1012.88 1012.58 1012.06 1011.26 1010.78 1010.21 1009.77 1008.86 1007.31 1005.29 1005.20 1005.10 1004.31 1003.77 1003.25 1002.49 1001.91 1001.28 1000.68 999.86 998.76 998.53 998.32 998.08 997.64 997.28
1015.51 1015.20 1014.89 1014.58 1014.27 1014.03 1013.76 1013.35 1012.88 1012.43 1011.87 1011.19 1010.62 1009.94 1009.10 1008.48 1007.51 1004.67 1004.80 1004.70 1004.16 1003.42 1002.63 1001.63 1000.60 1000.01 999.66 998.79 998.44 998.45 998.12 997.56 996.90
Wind_Speed
6 5 4 2 2 4 5 5 7 8 9 10 11 11 5 5 9 8 10 8 8 8 11 11 12 11 10 11 12 11 12 11 11
4 9 5 2 2 4 5 6 7 8 8 10 11 12 10 8 12 9 10 10 10 12 13 15 12 13 15 15 15 14 13 13 13
6 5 5 2 3 4 7 8 10 9 9 9 10 11 11 8 12 11 9 10 12 16 16 16 15 14 15 16 16 16 15 15 14
9 4 3 3 4 5 10 10 10 11 10 10 10 10 10 12 10 10 8 9 12 15 18 17 18 17 17 17 17 17 17 16 16
0 3 1 6 9 8 9 12 12 12 12 11 11 9 10 14 11 9 9 11 16 18 18 20 19 20 19 19 19 19 19 19 18
4 2 5 7 9 11 11 12 13 12 12 14 11 8 9 10 8 7 9 14 18 19 20 21 21 21 22 19 20 21 21 21 21
5 6 6 10 11 12 13 14 14 12 10 6 11 7 9 8 9 8 10 17 20 21 22 22 23 23 24 23 22 23 23 23 23
4 4 5 6 7 7 7 7 7 9 8 9 9 10 10 8 8 11 12 19 22 23 23 24 24 25 26 26 26 24 24 24 23
5 4 6 6 5 7 7 6 9 10 12 13 13 13 11 9 9 11 13 19 23 24 24 25 26 27 27 28 28 26 26 26 26
5 5 5 6 6 7 7 8 8 10 11 11 13 14 14 15 10 9 12 17 23 25 26 26 27 28 29 30 28 28 28 28 28
5 6 6 6 6 6 7 8 9 9 10 12 13 14 14 15 15 12 13 14 21 25 27 27 28 28 29 31 29 28 29 29 29
6 5 6 6 6 9 8 9 9 9 9 12 12 12 15 14 16 14 12 13 16 24 28 28 29 30 31 31 31 30 30 31 31
6 5 5 7 7 7 7 8 9 9 10 10 11 11 13 16 16 14 13 12 12 11 23 27 28 30 31 32 33 31 31 31 32
4 5 6 7 5 6 7 7 8 9 9 9 11 11 12 14 13 15 16 16 14 11 15 15 22 26 30 31 33 33 32 32 32
8 7 8 8 7 8 9 11 10 11 10 11 12 12 12 12 12 13 12 12 14 15 16 14 12 20 26 29 30 31 31 31 33
10 7 8 9 8 9 10 9 11 9 10 11 12 12 15 11 13 9 13 16 17 17 15 11 9 9 17 22 26 28 30 32 31
9 9 7 9 7 9 10 11 10 10 11 12 13 10 11 9 15 15 13 18 15 14 13 14 16 15 12 13 19 21 27 30 32
9 9 8 8 8 8 9 10 12 10 10 13 10 11 10 14 13 16 14 16 14 15 16 19 19 18 15 14 16 21 25 30 31
10 9 9 8 7 8 9 9 10 10 10 9 9 13 15 14 15 8 15 15 17 19 14 16 18 19 17 16 15 19 24 30 32
9 9 8 8 7 8 9 10 10 8 9 10 10 12 11 14 14 18 12 14 14 15 15 16 15 19 18 14 16 24 25 27 30
Wind_Direction
165 153 138 114 12 338 330 329 325 318 310 310 306 299 292 263 283 281 283 269 275 263 266 260 260 266 263 262 254 260 262 253 254
234 163 160 113 322 327 311 300 296 298 302 301 295 295 302 282 283 271 268 270 268 268 264 270 252 263 265 262 263 254 256 252 250
280 177 148 182 268 304 312 283 287 279 280 288 294 298 307 279 275 271 268 271 275 267 266 266 260 255 260 260 258 256 250 250 248
32 131 176 233 278 301 310 303 300 295 288 295 296 292 281 283 274 274 267 245 258 267 265 258 267 255 249 255 259 258 253 249 246
20 316 167 319 307 302 298 298 293 292 292 288 281 279 275 262 261 266 260 256 260 264 265 265 258 264 257 250 252 252 254 248 247
260 352 302 286 285 285 284 282 282 289 280 256 252 262 268 269 265 263 251 252 255 261 261 262 264 259 263 255 246 250 248 248 246
311 304 273 269 270 273 272 275 279 275 271 273 213 247 272 275 272 267 257 255 255 257 256 256 257 259 258 260 258 247 247 247 245
262 276 265 271 225 274 265 278 268 285 285 284 279 278 278 275 272 266 251 254 258 261 260 257 255 254 254 255 256 254 245 243 244
279 283 289 289 291 297 295 292 292 286 278 278 280 279 274 271 272 271 236 245 254 257 258 258 256 254 253 252 253 252 249 241 237
296 296 307 302 300 297 297 294 292 288 287 283 278 276 273 272 269 269 248 232 246 254 254 253 253 253 252 251 250 249 250 245 239
312 303 292 297 296 299 298 297 297 292 291 289 283 280 279 274 273 272 272 239 240 248 253 253 252 252 253 252 251 249 249 249 247
293 296 303 310 317 313 311 309 302 295 295 294 297 295 291 285 283 276 271 273 238 239 251 256 251 249 248 249 249 248 245 244 244
313 315 326 337 329 325 318 322 313 311 311 311 310 306 298 290 285 281 279 274 274 253 239 249 258 259 255 253 252 249 247 245 245
10 13 7 354 352 348 341 330 326 317 310 304 301 300 291 288 287 280 282 280 276 273 274 251 247 253 259 260 259 257 253 249 246
44 39 26 11 9 2 352 343 335 322 323 319 308 302 291 288 288 290 292 289 287 284 279 278 268 239 249 257 262 264 262 258 255
35 27 20 10 7 359 348 341 334 329 330 313 319 305 277 300 305 348 313 296 288 288 285 286 287 281 257 251 258 261 263 264 260
34 22 14 8 353 353 349 348 337 330 335 326 315 322 303 310 333 308 295 310 296 295 297 283 289 290 285 283 272 263 263 267 269
27 21 10 5 357 354 348 348 341 331 328 338 318 320 317 313 307 313 290 327 314 303 309 313 307 291 281 272 270 259 261 265 268
21 15 9 6 356 357 349 349 342 336 332 328 327 314 312 312 312 313 316 304 321 305 304 304 302 297 279 280 278 265 267 273 278
17 10 7 6 3 358 350 344 343 336 332 332 325 320 316 318 313 310 314 298 302 302 298 285 298 310 294 291 314 323 325 314 305